Tracking 17938 objects as of 23-February-2017
HD Live streaming from Space Station
objects crossing your sky now

OXP 1

Track OXP 1 now!
10-day predictions
OXP 1 is classified as:


NORAD ID: 22489
Int'l Code: 1993-009A
Perigee: 720.5 km
Apogee: 778.8 km
Inclination: 25.0 °
Period: 99.7 minutes
Semi major axis: 7120 km
RCS: 1.9581 m2 (large)
Launch date: February 9, 1993
Source: United States (US)
Launch site: AIR FORCE EASTERN TEST RANGE (AFETR)
Your satellite tracking list
Your tracking list is empty





NASA's NSSDC Master Catalog

Two Line Element Set (TLE):
1 22489U 93009A   17052.93538579 +.00000265 +00000-0 +22588-4 0  9992
2 22489 024.9652 298.7677 0040943 199.2631 160.6328 14.44839191268413
Source of the keplerian elements: AFSPC